Regional Weather Roundup
Issued by NWS Green Bay, WI

Home | Current Version | Previous Version | Graphics & Text | Print | Product List | Glossary Off
Versions: 1 2 3 4 5 6 7 8 9 10 11 12 13 14 15 16 17 18 19 20 21 22 23 24 25 26 27 28 29 30 31 32 33 34 35 36 37 38 39 40 41 42 43 44 45 46 47 48 49 50

000
ASUS43 KGRB 261311
RWRGRB

NORTH-CENTRAL AND NORTHEAST WISCONSIN REGIONAL WEATHER ROUNDUP
NATIONAL WEATHER SERVICE GREEN BAY WI
800 AM CDT THU MAY 26 2016

WIZ005-009-010>012-018-019-261400-
NORTH CENTRAL WISCONSIN

CITY           SKY/WX    TMP DP  RH WIND       PRES   REMARKS
IRONWOOD       CLOUDY    59  57  94 E5        29.79F
MANITOWISH WTR NOT AVBL
ARBOR VITAE    CLOUDY    62  61  96 CALM      29.83R
EAGLE RIVER      N/A     61  60  96 CALM      29.84R
LAND O LAKES   CLOUDY    62  60  94 W3        29.84S
RHINELANDER    CLOUDY    63  62  97 SE3       29.85R FOG
PHILLIPS       CLOUDY    61  61 100 CALM      29.81R FOG
ANTIGO         FOG       61  61 100 CALM      29.87R VSB 1
TOMAHAWK       FOG       62  61  97 CALM      29.83F VSB 1
MERRILL        CLOUDY    62  62 100 CALM      29.85R FOG
$$

WIZ013-073-261400-
NORTHEAST WISCONSIN

CITY           SKY/WX    TMP DP  RH WIND       PRES   REMARKS
IRON MOUNTAIN  CLOUDY    66  60  81 VRB3      29.82F
MARINETTE      CLOUDY    59  58  96 S5        29.87R FOG
OCONTO         CLOUDY    62  62 100 S3        29.86R VSB 3/4
$$

WIZ017-030-035>037-045-261400-
CENTRAL WISCONSIN

CITY           SKY/WX    TMP DP  RH WIND       PRES   REMARKS
MEDFORD        RAIN      61  61 100 SW10G18   29.84S
WAUSAU         FOG       63  32  31 S9        29.84R VSB 1/2
MOSINEE        TSTM      61  61 100 SW15      29.89R VSB 1
MARSHFIELD     TSTM      61  59  93 SW6       29.86R FOG
WISC RAPIDS    TSTM      60  58  92 W5        29.88F FOG
STEVENS POINT  RAIN      60  60 100 SW17G25   29.89R
WAUPACA        FOG       63  62  97 CALM      29.86F VSB 1/4
SHAWANO        CLOUDY    64  63  96 S3        29.87R FOG
CLINTONVILLE   FOG       63  61  94 CALM      29.85S VSB 1
WAUTOMA        NOT AVBL
$$

WIZ038-039-048-051-261400-
FOX VALLEY

CITY           SKY/WX    TMP DP  RH WIND       PRES   REMARKS
NWS GREEN BAY  CLOUDY    64  63  96 CALM      29.85S FOG
APPLETON       PTSUNNY   63  63 100 CALM      29.85S FOG
OSHKOSH        CLOUDY    66  63  90 SW3       29.85S
FOND DU LAC    CLOUDY    68  65  90 SW7       29.86S
$$

WIZ022-050-052-261400-
EAST CENTRAL WISCONSIN

CITY           SKY/WX    TMP DP  RH WIND       PRES   REMARKS
EPHRAIM        FOG       58  58 100 S3        29.86R VSB 1/2
STURGEON BAY   NOT AVBL
MANITOWOC      FOG       58  57  97 E3        29.87S VSB 1/4
SHEBOYGAN      PTSUNNY   67  65  93 S8        29.86F
$$

LMZ563-521-522-541>543-261400-
LAKESHORE

STATION/POSITION TIME  TEMP    WIND        PRES    VSBY  WAVE
                       AIR SEA DIR/SP/G                  HT/PER
                 (UTC) (F)     (DEG/KT/KT) (MB)    (MI)  (FT/S)
SHEBOYGAN LKSHOR 1300   56     160/ 12/ 12 1011.6F
KEWAUNEE LKSHORE 1200   49     170/  5/  7 1010.8R
NORTHPORT PIER   1200   55     180/  4/ 10 1010.8S
N MID LAKE BUOY  1250   50 45  210/ 14/ 16 1011.0S         1/ 3
SISTER BAY LKSHO 1235   57     140/  2/  6   N/A
CHAMBERS ISLAND  1200   57     170/  3/  7 1011.2R
MENOMINEE LKSHOR 1200   55     150/  7/  8 1009.9R
$$



USA.gov is the U.S. government's official web portal to all federal, state and local government web resources and services.